EW2270 Weather Reports


time (UTC)temp
C
wind
direction
speed
KPH
gust
KPH
rain 1hr
cm
rain 24hr
cm
rain mn
cm
humidity
%
barometer
mb
20260831231534 28 23 17.7 24.1 0.00 0.00 0.00 20 1007.1
20260831230035 28 12 14.5 27.4 0.00 0.00 0.00 21 1007.3
20260831224526 28 29 12.9 24.1 0.00 0.00 0.00 21 1007.6
20260831223024 28 15 20.9 27.4 0.00 0.00 0.00 22 1007.7
20260831221521 28 15 17.7 25.7 0.00 0.00 0.00 23 1008.0
20260831220017 27 34 22.5 30.6 0.00 0.00 0.00 23 1008.2
20260831214515 27 37 16.1 32.2 0.00 0.00 0.00 24 1008.5
20260831213012 27 356 16.1 24.1 0.00 0.00 0.00 24 1008.8
20260831211509 27 51 16.1 27.4 0.00 0.00 0.00 24 1009.1
20260831210006 26 22 12.9 25.7 0.00 0.00 0.00 24 1009.3
20260831204504 26 45 14.5 25.7 0.00 0.00 0.00 24 1009.5
20260831203001 26 77 16.1 29.0 0.00 0.00 0.00 25 1009.7
20260831201600 26 44 16.1 25.7 0.00 0.00 0.00 24 1010.0
20260831200058 26 17 11.3 25.7 0.00 0.00 0.00 25 1010.3
20260831194632 26 49 12.9 22.5 0.00 0.00 0.00 25 1010.5
20260831193053 26 49 12.9 20.9 0.00 0.00 0.00 26 1010.5
20260831191548 25 316 4.8 17.7 0.00 0.00 0.00 26 1010.9
20260831190059 25 30 9.7 16.1 0.00 0.00 0.00 27 1011.3
20260831184541 24 322 3.2 12.9 0.00 0.00 0.00 27 1011.6
20260831183037 23 39 4.8 12.9 0.00 0.00 0.00 28 1011.9
20260831181538 22 266 0.0 9.7 0.00 0.00 0.00 30 1012.1
20260831180028 22 16 4.8 12.9 0.00 0.00 0.00 30 1012.3
20260831174528 21 15 4.8 8.0 0.00 0.00 0.00 32 1012.6
20260831173022 21 29 4.8 9.7 0.00 0.00 0.00 32 1012.7
20260831171518 20 306 3.2 8.0 0.00 0.00 0.00 34 1012.9
20260831170013 18 219 1.6 6.4 0.00 0.00 0.00 37 1012.9
20260831164513 18 305 0.0 6.4 0.00 0.00 0.00 39 1013.0
20260831163007 17 319 3.2 6.4 0.00 0.00 0.00 40 1013.1
20260831161503 16 43 0.0 6.4 0.00 0.00 0.00 44 1013.4
20260831160107 15 5 1.6 6.4 0.00 0.00 0.00 47 1013.5
20260831154628 15 330 1.6 3.2 0.00 0.00 0.00 48 1013.5
20260831153051 13 276 1.6 4.8 0.00 0.00 0.00 51 1013.6
20260831151547 13 154 0.0 3.2 0.00 0.00 0.00 56 1013.8
20260831150046 12 148 0.0 0.0 0.00 0.00 0.00 56 1013.8
20260831144541 11 148 0.0 0.0 0.00 0.00 0.00 59 1013.8
20260831143103 11 148 0.0 0.0 0.00 0.00 0.00 59 1013.7
20260831141552 8 148 0.0 1.6 0.00 0.00 0.00 62 1013.5
20260831140044 8 148 0.0 1.6 0.00 0.00 0.00 65 1013.5
20260831134538 7 148 0.0 3.2 0.00 0.00 0.00 68 1013.5
20260831133037 7 148 1.6 1.6 0.00 0.00 0.00 68 1013.4
20260831131536 6 148 0.0 3.2 0.00 0.00 0.00 70 1013.4
20260831130037 6 148 0.0 0.0 0.00 0.00 0.00 68 1013.3
20260831124532 8 148 0.0 0.0 0.00 0.00 0.00 66 1013.2
20260831123030 8 148 0.0 1.6 0.00 0.00 0.00 64 1013.3
20260831121530 8 148 1.6 3.2 0.00 0.00 0.00 65 1013.4
20260831120032 7 148 3.2 4.8 0.00 0.00 0.00 67 1013.4
20260831114534 8 148 0.0 0.0 0.00 0.00 0.00 65 1013.4
20260831113029 7 148 1.6 1.6 0.00 0.00 0.00 67 1013.3
20260831111528 7 148 0.0 1.6 0.00 0.00 0.00 63 1013.4
20260831110025 7 148 0.0 3.2 0.00 0.00 0.00 66 1013.4
20260831104522 7 148 0.0 6.4 0.00 0.00 0.00 66 1013.4
20260831103021 7 148 3.2 4.8 0.00 0.00 0.00 64 1013.5
20260831101524 8 148 3.2 4.8 0.00 0.00 0.00 63 1013.5
20260831100016 7 148 1.6 3.2 0.00 0.00 0.00 64 1013.7
20260831094513 8 148 0.0 0.0 0.00 0.00 0.00 66 1013.6
20260831093013 8 148 0.0 0.0 0.00 0.00 0.00 60 1013.8
20260831091508 9 148 0.0 1.6 0.00 0.00 0.00 61 1013.9
20260831090006 8 149 0.0 3.2 0.00 0.00 0.00 60 1014.2
20260831084505 8 148 3.2 6.4 0.00 0.00 0.00 59 1014.3
20260831083007 9 149 1.6 3.2 0.00 0.00 0.00 60 1014.2
20260831081601 9 148 3.2 6.4 0.00 0.00 0.00 58 1014.1
20260831074558 10 125 0.0 0.0 0.00 0.00 0.00 58 1014.2
20260831073102 11 125 1.6 3.2 0.00 0.00 0.00 58 1014.2
20260831071553 11 125 1.6 1.6 0.00 0.00 0.00 57 1014.4
20260831070050 10 125 0.0 1.6 0.00 0.00 0.00 59 1014.3
20260831064555 10 125 0.0 0.0 0.00 0.00 0.00 57 1014.3
20260831063048 11 125 1.6 3.2 0.00 0.00 0.00 55 1014.4
20260831061558 11 125 0.0 3.2 0.00 0.00 0.00 54 1014.3
20260831060059 12 125 0.0 4.8 0.00 0.00 0.00 52 1014.4
20260831054547 12 126 0.0 3.2 0.00 0.00 0.00 52 1014.4
20260831053048 12 148 0.0 1.6 0.00 0.00 0.00 51 1014.3
20260831051555 12 160 1.6 3.2 0.00 0.00 0.00 51 1014.3
20260831050045 12 263 3.2 4.8 0.00 0.00 0.00 52 1014.4
20260831044547 13 142 0.0 4.8 0.00 0.00 0.00 49 1014.3
20260831043048 12 142 0.0 3.2 0.00 0.00 0.00 51 1014.5
20260831041543 13 158 0.0 1.6 0.00 0.00 0.00 48 1014.4
20260831040042 13 158 0.0 3.2 0.00 0.00 0.00 47 1014.4
20260831034544 15 158 0.0 3.2 0.00 0.00 0.00 46 1014.3
20260831033042 15 132 1.6 4.8 0.00 0.00 0.00 43 1014.2
20260831031545 16 110 1.6 4.8 0.00 0.00 0.00 45 1014.2
20260831030047 18 115 1.6 3.2 0.00 0.00 0.00 39 1014.1
20260831024607 20 309 0.0 3.2 0.00 0.00 0.00 36 1013.9
20260831023039 21 298 1.6 4.8 0.00 0.00 0.00 34 1013.8
20260831021539 21 305 1.6 6.4 0.00 0.00 0.00 33 1013.7
20260831020039 22 312 1.6 4.8 0.00 0.00 0.00 32 1013.7
20260831014540 23 312 3.2 8.0 0.00 0.00 0.00 31 1013.6
20260831013042 23 314 6.4 9.7 0.00 0.00 0.00 31 1013.8
20260831011537 23 313 1.6 8.0 0.00 0.00 0.00 29 1013.8
20260831010035 23 302 3.2 11.3 0.00 0.00 0.00 31 1013.8
20260831004535 23 342 3.2 11.3 0.00 0.00 0.00 30 1013.9
20260831003034 23 336 3.2 11.3 0.00 0.00 0.00 30 1014.0
20260831001532 23 319 6.4 14.5 0.00 0.00 0.00 30 1014.1
20260831000030 23 298 9.7 16.1 0.00 0.00 0.00 28 1014.2
20260830234528 23 292 3.2 12.9 0.00 0.00 0.00 30 1014.3
20260830233027 23 288 8.0 16.1 0.00 0.00 0.00 29 1014.4